Location: Apollinopolis Magna
(24.9792°N, 32.8772°E)
Time: 19:17:29
(UTC+00:00)

ARGOS - Pass Details

Date: 02 March 2021
Orbit: 819 x 835 km, 98.4° (Epoch: 10 April)

Event Time Altitude Azimuth Distance (km) Brightness Sun altitude
Rises 16:20:53 0° 145° (SE) 3,360 6.0 -7.5°
Reaches altitude 10° 16:23:25 10° 136° (SE) 2,431 5.2 -8.1°
Maximum altitude 16:28:13 34° 73° (ENE) 1,348 3.8 -9.2°
Drops below altitude 10° 16:33:02 10° 10° (N) 2,445 5.5 -10.3°
Sets 16:35:35 0° 1° (N) 3,382 6.3 -10.8°
